FW4441 Weather Reports


time (UTC)temp
F
wind
direction
speed
knots
gust
knots
rain 1hr
in
rain 24hr
in
rain mn
in
humidity
%
barometer
mb
20260510211532 69 256 11.3 20.0 0.00 0.00 0.00 54 1015.6
20260510204530 62 269 12.2 20.0 0.00 0.00 0.00 62 1015.5
20260510203106 64 267 12.2 21.7 0.00 0.00 0.00 60 1015.1
20260510201607 66 275 11.3 23.5 0.00 0.00 0.00 57 1014.7
20260510200106 69 272 13.0 22.6 0.00 0.00 0.00 54 1014.6
20260510194528 71 263 13.0 22.6 0.00 0.00 0.00 55 1014.6
20260510193106 70 256 10.4 20.9 0.00 0.00 0.00 58 1014.5
20260510191530 69 252 8.7 20.0 0.00 0.00 0.00 58 1014.4
20260510184531 69 269 6.1 13.0 0.00 0.00 0.00 60 1014.5
20260510183033 70 288 3.5 9.6 0.00 0.00 0.00 61 1014.5
20260510181532 69 343 2.6 5.2 0.00 0.00 0.00 64 1014.5
20260510180029 65 9 2.6 7.0 0.00 0.00 0.00 69 1014.6
20260510174646 62 353 3.5 7.0 0.00 0.00 0.00 73 1014.6
20260510173107 61 355 5.2 7.8 0.00 0.00 0.00 74 1014.6
20260510171532 60 357 5.2 9.6 0.00 0.00 0.00 74 1014.6
20260510170029 60 359 6.1 9.6 0.00 0.00 0.00 74 1014.5
20260510163030 59 18 6.1 7.8 0.00 0.00 0.00 73 1014.5
20260510161646 59 14 5.2 7.8 0.00 0.00 0.00 74 1014.6
20260510154532 57 12 4.3 7.0 0.00 0.00 0.00 77 1014.3
20260510151530 53 12 2.6 4.3 0.00 0.00 0.00 80 1014.2
20260510150028 51 85 0.9 3.5 0.00 0.00 0.00 80 1014.5
20260510144556 50 102 0.9 2.6 0.00 0.00 0.00 79 1014.1
20260510143106 50 166 1.7 3.5 0.00 0.00 0.00 77 1014.1
20260510141531 51 337 0.9 3.5 0.00 0.00 0.00 78 1013.9
20260510140030 49 37 0.0 2.6 0.00 0.00 0.00 79 1013.8
20260510134543 48 337 0.0 0.0 0.00 0.00 0.00 79 1014.1
20260510133102 47 337 0.0 1.7 0.00 0.00 0.00 80 1014.0
20260510130032 47 202 0.0 2.6 0.00 0.00 0.00 77 1013.9
20260510124530 48 138 0.0 3.5 0.00 0.00 0.00 77 1013.9
20260510123031 47 152 2.6 4.3 0.00 0.00 0.00 77 1014.1
20260510121607 48 237 0.0 2.6 0.00 0.00 0.00 76 1014.1
20260510120030 48 46 1.7 4.3 0.00 0.00 0.00 77 1013.9
20260510114530 46 34 2.6 3.5 0.00 0.00 0.00 76 1014.0
20260510113107 48 204 0.9 2.6 0.00 0.00 0.00 74 1013.9
20260510111605 49 152 0.0 1.7 0.00 0.00 0.00 73 1013.6
20260510110033 50 94 0.0 1.7 0.00 0.00 0.00 73 1013.5
20260510104531 50 67 0.9 1.7 0.00 0.00 0.00 73 1013.9
20260510103030 50 61 0.9 2.6 0.00 0.00 0.00 72 1014.0
20260510101529 49 325 0.0 1.7 0.00 0.00 0.00 71 1013.7
20260510100030 50 193 0.9 2.6 0.00 0.00 0.00 71 1013.7
20260510094531 51 126 0.0 1.7 0.00 0.00 0.00 69 1013.6
20260510093034 51 45 0.0 0.0 0.00 0.00 0.00 69 1013.6
20260510091529 51 51 1.7 3.5 0.00 0.00 0.00 68 1013.8
20260510090145 51 312 0.0 3.5 0.00 0.00 0.00 67 1013.8
20260510084530 52 7 1.7 3.5 0.00 0.00 0.00 66 1013.9
20260510083030 52 12 1.7 3.5 0.00 0.00 0.00 64 1014.0
20260510081607 53 67 0.9 2.6 0.00 0.00 0.00 65 1014.0
20260510080029 52 140 0.0 1.7 0.00 0.00 0.00 63 1014.1
20260510074531 54 136 0.0 1.7 0.00 0.00 0.00 60 1014.1
20260510073030 55 112 0.0 1.7 0.00 0.00 0.00 60 1014.1
20260510071531 54 138 0.9 3.5 0.00 0.00 0.00 62 1014.1
20260510064532 57 91 0.0 1.7 0.00 0.00 0.00 58 1014.0
20260510063036 58 88 0.9 2.6 0.00 0.00 0.00 58 1013.9
20260510061529 58 69 0.9 3.5 0.00 0.00 0.00 57 1013.9
20260510051530 61 202 0.0 1.7 0.00 0.00 0.00 52 1013.5
20260510050031 62 192 0.9 3.5 0.00 0.00 0.00 50 1013.4
20260510044529 63 185 0.9 3.5 0.00 0.00 0.00 49 1013.2
20260510041531 64 153 0.0 1.7 0.00 0.00 0.00 48 1013.0
20260510040030 66 155 1.7 3.5 0.00 0.00 0.00 49 1012.7
20260510033031 68 202 0.0 1.7 0.00 0.00 0.00 46 1012.5
20260510031529 69 182 0.0 1.7 0.00 0.00 0.00 44 1012.5
20260510030030 70 113 0.0 2.6 0.00 0.00 0.00 44 1012.5
20260510021530 72 117 0.9 3.5 0.00 0.00 0.00 39 1012.3
20260510020032 73 242 0.9 2.6 0.00 0.00 0.00 39 1012.4
20260510014532 74 201 0.9 2.6 0.00 0.00 0.00 38 1012.6
20260510011531 75 34 2.6 7.0 0.00 0.00 0.00 35 1012.7
20260510004530 78 38 3.5 7.0 0.00 0.00 0.00 33 1012.9
20260510003031 79 37 4.3 8.7 0.00 0.00 0.00 33 1012.9
20260510001531 77 46 3.5 9.6 0.00 0.00 0.00 33 1013.0
20260510000032 78 44 4.3 11.3 0.00 0.00 0.00 33 1013.1
20260509234530 80 31 5.2 9.6 0.00 0.00 0.00 33 1013.3
20260509233029 81 38 3.5 7.8 0.00 0.00 0.00 34 1013.6
20260509231532 81 25 5.2 8.7 0.00 0.00 0.00 34 1013.8
20260509230030 82 16 5.2 8.7 0.00 0.00 0.00 35 1014.1
20260509224532 81 17 3.5 9.6 0.00 0.00 0.00 36 1014.4
20260509223031 80 19 5.2 8.7 0.00 0.00 0.00 37 1014.6
20260509221646 79 20 6.1 10.4 0.00 0.00 0.00 38 1014.9
20260509220054 79 24 7.8 13.9 0.00 0.00 0.00 38 1015.0
20260509214532 78 27 7.8 12.2 0.00 0.00 0.00 40 1015.2
20260509213106 79 29 7.8 12.2 0.00 0.00 0.00 41 1015.4